Location: Mouss�
(47.9236°N, 1.2701°W)
Time: 02:36:09
(UTC+00:00)

Cosmos 1461 - Pass Details

Date: 03 March 2021
Orbit: 505 x 659 km, 65.0° (Epoch: 17 April)

Event Time Altitude Azimuth Distance (km) Brightness Sun altitude
Rises 19:06:53 0° 239° (WSW) 2,969 7.5 -13.2°
Reaches altitude 10° 19:09:18 10° 246° (WSW) 2,069 6.7 -13.6°
Maximum altitude 19:13:45 40° 317° (NW) 973 4.5 -14.3°
Drops below altitude 10° 19:18:13 10° 27° (NNE) 2,073 5.5 -15.1°
Enters shadow 19:20:15 - 34° (NE) 2,826 6.2 -15.4°
